Погода в Астраханке

Погода в Астраханке : погода сейчас, прогноз погоды и архив. Всё, что Вы хотите узнать о погоде в Астраханке!

Хотите узнать прогноз погоды в Астраханке? Тогда Вам сюда: Погода в Астраханке

Поиск расширенной информации на нашем сайте:

Другие новости

Новости СМИ2

Главная страница сайта

Новости сайта

03.07.2017

Напоминаем, что на нашем специализированном сайте Метеоцентр.Азия вы можете получить высокодетализированные автоматические прогнозы погоды по пунктам России, СНГ и мира в авиационном формате (включающие направление и скорость ветра, видимость, явления погоды, количество и форму облачности, нижнюю и верхнюю границу облачности).


Погода в Астраханке - сегодня

Время (UTC), дата Ветер
(°,м/с) 
Видим.   Явления Облачность Т
(°С)
Тd
(°С)
f(%) Тe
(°С)
Pmin
(гПа)
dP
(гПа)
Po
(мм)
O2
(г/м3)
Тmin Tmax R s Состояние
почвы
12 16.02.18 280 (З) 4{12}  20000 м  {ливн. осадки}  ясно 
-9 -19.4 43 -13  1010.7  750  314           
15 16.02.18 300 (СЗ) 20000 м    10/10 1000 м кучево-дожд. 
[Cb cap]
-10.2 -16.4 60 -13  1010.9  0.1  751  316           
18 16.02.18 320 (СЗ) 20000 м    10/10 1000 м кучево-дожд. 
[Cb cap]
-11.1 -16.2 66 -14  1012.2  1.3  752  317           
00 17.02.18 310 (СЗ) 20000 м    6/3 600 м верхняя 
[Cu hum|Ci fib]
-12.3 -19.9 53 -17  1016.9  2.9  755  320           
06 17.02.18 320 (СЗ) 5{13}  20000 м    4/3 600 м верхняя 
[Cu hum|Ci ing]
-9.2 -22.9 32 -14  1017.9  0.1  756  317           
12 17.02.18 240 (ЮЗ) 20000 м    ясно 
-15.8 -21.4 62 -18  1023.2  2.7  760  326           
15 17.02.18 290 (З) 20000 м    ясно 
-14.1 -23 47 -16  1024.4  1.3  761  325           
18 17.02.18 240 (ЮЗ) 20000 м    ясно 
-16.8 -23.6 56 -19  1025.1  0.5  761  328           
00 18.02.18 230 (ЮЗ) 20000 м    ясно 
-15.1 -22 56 -17  1026.7  1.2  762  327  -20.9         
03 18.02.18 080 (В) 20000 м    ясно 
-10.7 -20.1 46 -14  1025.7  -0.8  762  321           
06 18.02.18 110 (В) 20000 м    ясно 
-10.6 -17.2 58 -15  1023.7  -2  760  320           
12 18.02.18 220 (ЮЗ) 20000 м    ясно 
-14.2 -21.3 55 -16  1022.8  -0.6  759  324           
15 18.02.18 240 (ЮЗ) 20000 м    ясно 
-13.9 -21.7 52 -18  1022.4  -0.4  759  324           
18 18.02.18 010 (С) 20000 м    ясно 
-16.4 -20.4 71 -17  1022.8  0.3  759  327           
00 19.02.18 220 (ЮЗ) 20000 м    1/0 верхняя 
[Ci fib]
-12.7 -21.2 49 -15  1022.9  0.6  759  322           
03 19.02.18 060 (СВ) 20000 м    10/1 1000 м верхняя 
[Cu hum|Ci sp]
-7.6 -21.2 33 -10  1022.9  -1.8  758  316           
06 19.02.18 120 (ЮВ) 20000 м    10/8 600 м кучево-дожд., верхняя 
[Cb cap|Ci sp]
-6.2 -14.3 53 -10  1018  -2.7  756  313           
12 19.02.18 230 (ЮЗ) 20000 м    3/0 верхняя 
[Ci fib]
-10.2 -18.9 49 -10  1019.7  1.7  757  318           
15 19.02.18 230 (ЮЗ) 20000 м    6/0 верхняя 
[Ci fib]
-12.3 -21.7 45 -14  1020  0.1  757  321           
18 19.02.18 240 (ЮЗ) 20000 м    3/0 верхняя 
[Ci fib]
-14.9 -23.1 50 -19  1019.3  -0.7  757  324           
00 20.02.18 260 (З) 20000 м    8/0 верхняя 
[Ci sp]
-10.4 -19.1 49 -10  1019.1  0.4  757  318           
03 20.02.18 350 (С) 20000 м    8/6 600 м верхняя 
[Sc diur, vesp|Ci sp]
-7.8 -19.8 38 -11  1018.9  0.1  757  315           
06 20.02.18 320 (СЗ) 20000 м    9/8 600 м кучево-дожд., верхняя 
[Cb cap|Ci sp]
-7.4 -19 39 -10  1017.7  -1.2  756  314           
12 20.02.18 290 (З) 20000 м    ясно 
-11.5 -24.2 34 -13  1021  2.1  758  321           
15 20.02.18 230 (ЮЗ) 20000 м    ясно 
-14.4 -25.5 38 -17  1021.7  0.6  758  324           
Время (UTC), дата Ветер
(°,м/с) 
Видим.   Явления Облачность Т
(°С)
Тd
(°С)
f(%) Тe
(°С)
Pmin
(гПа)
dP
(гПа)
Po
(мм)
O2
(г/м3)
Тmin Tmax R s Состояние
почвы

Для получения пояснительной информации подведите курсор к названию столбца.

ПОГОДА в Астраханке - архив

Всё, что Вы хотите узнать о погоде в Астраханке - удобно и подробно!

Выберите нужную дату (начиная с 1 января 2015* года) и нажмите кнопку "Найти".
Будут отображены архивные сводки погоды по пункту Астраханка, начиная с указанной даты.


Отображать данные в формате CSV (для использования в таблицах Excel)


Внимание! Наш архив погоды предназначен исключительно для личного некоммерческого использования в познавательных целях. Если Вам необходимы официальные справки о состоянии погоды (для производственных, юридических, коммерческих и т.п. целей), обращайтесь в органы Росгидромета.

*Примечание: данная дата относится к архиву по метеостанциям СССР (Россия, СНГ, Балтия).
Архив по метеостанциям Зарубежной Европы и Азии (кроме Китая) хранится 10 дней, по другим регионам земного шара (Китай, Африка, Америка, Австралия, Океания) - 1 день.

Астраханка - район местоположения метеостанции


Название, широта, долгота, высота метеостанции:
Астраханка 44.7°ш. 132.1°д. 78 м над ур. моря [Российская Федерация]

Дополнительная информация

В oтличие oт бoльшинства пoгoдных сайтoв мы публикуем пoдрoбную метеoинфoрмацию в детальнoм прoфессиoнальнoм фoрмате.

Характеристики температуры и влажнoсти вoздуха измеряются на высoте 2 м в тени вдали oт зданий и деревьев.
Скoрoсть ветра измеряется на высoте 10 м (на урoвне рoста челoвека скoрoсть ветра ниже в 1.5-2 раза). Если метеoстанция нахoдится в гoрoде или в лесу, тo скoрoсть ветра занижена на 2-4 м/с пo сравнению с oткрытым местoм. Скoрoсть ветра над акватoриями крупных рек и oзёр, а также на вершинах хoлмoв на 2-5 м/с выше, чем в oбычных услoвиях.
Атмoсфернoе давление в разных тoчках местнoсти мoжет значительнo oтличаться oт давления на метеoстанции, в зависимoсти oт услoвий рельефа (при пoдъёме на 10 м давление пoнижается примернo на 1 мм рт.ст.).